Location: Unspecified
(33.6682°S, 0.0000°E)
Time: 19:12:51
(UTC+00:00)

Vanguard 1 - Pass Details

Date: 01 July 2019
Orbit: 653 x 3830 km, 34.3° (Epoch: 18 July)

Event Time Altitude Azimuth Distance (km) Brightness Sun altitude
Rises 18:36:55 0° 258° (WSW) 4,624 14.6 -19.1°
Reaches altitude 10° 18:39:34 10° 263° (W) 3,960 14.2 -19.6°
Maximum altitude 18:50:09 48° 333° (NNW) 3,024 12.7 -21.8°
Drops below altitude 10° 19:08:21 10° 40° (NE) 6,538 14.0 -25.5°
Sets 19:14:21 0° 44° (NE) 7,811 14.4 -26.7°
